Location: Dunedin
(45.8670°S, 170.5000°E)
Time: 20:28:06
(UTC+12:00)

Cosmos 2237 Rocket - Pass Details

Date: 24 January 2019
Orbit: 834 x 850 km, 71.0° (Epoch: 21 April)

Event Time Altitude Azimuth Distance (km) Brightness Sun altitude
Exits shadow 23:51:36 22° 78° (ENE) 1,767 3.5 -19.6°
Maximum altitude 23:51:40 22° 79° (E) 1,767 3.5 -19.6°
Drops below altitude 10° 23:55:58 10° 128° (SE) 2,493 4.8 -20.0°
Sets 23:58:55 0° 142° (SE) 3,434 5.7 -20.2°
